軌道要素
Epoch 2024 Mar. 31.0 TT = JDT 2460400.5
T 2024 May 24.54818 TT Rudenko
q 1.4645211 (2000.0) P Q
n 0.06003017 Peri. 313.08993 +0.94472337 -0.03342077
a 6.4598584 Node 51.61249 +0.23382387 +0.76602323
e 0.7732890 Incl. 24.58937 -0.22983507 +0.64194351
P 16.4
>From 103 observations 2007 Oct. 12-2024 June 7, mean residual 0".7.
|